Вернуться в каталог

FALCON-9 R/B

АктивенHEO
NORAD 60087·ROCKET BODY·🇺🇸 United States

Запущен Jun 20, 2024 с Cape Canaveral Space Force Station

Loading…

Ближайшие Пролёты (ближайшие 24 часа)

TLE

СвежийSource: Space-Track

Эпоха: Sep 13, 2026, 22:43 UTC

1 60087U 24115B   26256.94662189  .00000337  00000-0  67278-2 0  9995
2 60087  26.4998 254.3990 7929478  95.2941 348.8703  1.44182934 11730

Отслеживайте FALCON-9 R/B в реальном времени с AllMySat

Download on the App Store